Weather History for KCAV - December, 2012

Change the Weather History Date:

Friday, December 28, 2012

  Actual Average (KFOD) Record (KFOD)
Temperature  
Mean Temperature 18 °F -  
Max Temperature 24 °F 29 °F - (-1)
Min Temperature 12 °F 11 °F - (-1)
Degree Days  
Heating Degree Days 47    
Moisture  
Dew Point 17 °F    
Average Humidity 87    
Maximum Humidity 93    
Minimum Humidity 80    
Precipitation  
Precipitation 0.00 in - - ()
Sea Level Pressure  
Sea Level Pressure 29.98 in    
Wind  
Wind Speed 10 mph (NE)    
Max Wind Speed 16 mph    
Max Gust Speed 20 mph    
Visibility 6 miles    
Events Rain , Snow    
Averages and records for this station are not official NWS values.
T = Trace of Precipitation, MM = Missing Value Source: NWS Daily Summary

Daily Weather History Graph

Daily Weather History Graph

Search for Another Location

Airport or City:

Trip Planner

Search our weather history database for the weather conditions in past years. The results will help you decide how hot, cold, wet, or windy it might be!

Date:

Astronomy

Dec. 28, 2012 Rise Set
Actual Time 7:44 AM CST 4:48 PM CST
Civil Twilight 7:12 AM CST 5:21 PM CST
Nautical Twilight 6:37 AM CST 5:56 PM CST
Astronomical Twilight 6:02 AM CST 6:31 PM CST
Moon 5:27 PM CST (12/28) 7:38 AM CST (12/28)
Length of Visible Light 10h 08m
Length of Day
9h 03m
Full, 100% of the Moon is Illuminated
Dec 28
Full
Jan 4
Last Quarter
Jan 11
New
Jan 18
First Quarter
Jan 26
Full

Hourly Weather History & Observations

Time (CST) Temp. Windchill Dew Point Humidity Pressure Visibility Wind Dir Wind Speed Gust Speed Precip Events Conditions
12:15 AM 21.2 °F 10.1 °F 17.6 °F 86% 30.03 in 10.0 mi East 10.4 mph - N/A   Overcast
12:35 AM 23.0 °F 11.7 °F 17.6 °F 80% 30.02 in 10.0 mi East 11.5 mph - N/A   Overcast
12:55 AM 21.2 °F 10.1 °F 17.6 °F 86% 30.02 in 4.0 mi East 10.4 mph - N/A Snow Light Snow
1:15 AM 21.2 °F 10.1 °F 17.6 °F 86% 30.02 in 4.0 mi East 10.4 mph - N/A Snow Light Snow
1:35 AM 21.2 °F 10.1 °F 19.4 °F 93% 30.02 in 5.0 mi East 10.4 mph - N/A Snow Light Snow
1:55 AM 21.2 °F 10.1 °F 17.6 °F 86% 30.02 in 4.0 mi ENE 10.4 mph - N/A Snow Light Snow
2:15 AM 21.2 °F 9.5 °F 19.4 °F 93% 30.02 in 3.0 mi East 11.5 mph - N/A Snow Light Snow
2:35 AM 21.2 °F 9.5 °F 19.4 °F 93% 30.01 in 2.5 mi East 11.5 mph - N/A Snow Light Snow
2:55 AM 21.2 °F 9.5 °F 17.6 °F 86% 30.01 in 3.0 mi ENE 11.5 mph - N/A Snow Light Snow
3:15 AM 21.2 °F 9.5 °F 17.6 °F 86% 30.01 in - ENE 11.5 mph - N/A Snow Light Snow
3:35 AM 21.2 °F 10.1 °F 17.6 °F 86% 30.00 in 5.0 mi East 10.4 mph - N/A Snow Light Snow
3:55 AM 21.2 °F 10.1 °F 17.6 °F 86% 30.00 in 4.0 mi ENE 10.4 mph - N/A Snow Light Snow
4:15 AM 21.2 °F 9.5 °F 17.6 °F 86% 29.99 in 6.0 mi East 11.5 mph - N/A Snow Light Snow
4:35 AM 21.2 °F 9.5 °F 17.6 °F 86% 29.99 in 8.0 mi East 11.5 mph - N/A Snow Light Snow
4:55 AM 21.2 °F 9.5 °F 19.4 °F 93% 29.98 in 7.0 mi East 11.5 mph - N/A Snow Light Snow
5:15 AM 21.2 °F 9.5 °F 19.4 °F 93% 29.98 in 5.0 mi East 11.5 mph - N/A Snow Light Snow
5:35 AM 21.2 °F 10.1 °F 19.4 °F 93% 29.98 in 5.0 mi East 10.4 mph - N/A Snow Light Snow
5:55 AM 21.2 °F 10.1 °F 19.4 °F 93% 29.98 in 5.0 mi East 10.4 mph - N/A Snow Light Snow
6:35 AM 21.2 °F 10.1 °F 19.4 °F 93% 29.98 in 3.0 mi East 10.4 mph - N/A Snow Light Snow
6:55 AM 21.2 °F 10.9 °F 19.4 °F 93% 29.98 in 4.0 mi East 9.2 mph - N/A Snow Light Snow
7:15 AM 21.2 °F 11.7 °F 19.4 °F 93% 29.98 in 4.0 mi East 8.1 mph - N/A Snow Light Snow
7:35 AM 21.2 °F 11.7 °F 17.6 °F 86% 29.98 in 3.0 mi ENE 8.1 mph - N/A Snow Light Snow
7:55 AM 17.6 °F 7.3 °F 15.8 °F 93% 29.99 in 6.0 mi East 8.1 mph - N/A Snow Light Snow
8:15 AM 15.8 °F 5.1 °F 12.2 °F 86% 29.98 in 7.0 mi East 8.1 mph - N/A   Mostly Cloudy
8:35 AM 14.0 °F 2.9 °F 10.4 °F 86% 29.99 in 6.0 mi East 8.1 mph - N/A   Overcast
8:55 AM 12.2 °F 1.7 °F 8.6 °F 85% 29.99 in 6.0 mi East 6.9 mph - N/A   Overcast
9:15 AM 14.0 °F 2.0 °F 10.4 °F 86% 29.99 in 7.0 mi East 9.2 mph - N/A   Mostly Cloudy
9:35 AM 15.8 °F 5.1 °F 14.0 °F 93% 30.00 in 8.0 mi ENE 8.1 mph - N/A   Mostly Cloudy
9:55 AM 19.4 °F 9.5 °F 15.8 °F 86% 29.99 in 9.0 mi East 8.1 mph - N/A   Overcast
10:15 AM 21.2 °F 10.9 °F 17.6 °F 86% 29.99 in 8.0 mi East 9.2 mph - N/A   Overcast
10:35 AM 23.0 °F 13.9 °F 19.4 °F 86% 29.99 in 8.0 mi East 8.1 mph - N/A   Mostly Cloudy
10:55 AM 23.0 °F 13.9 °F 19.4 °F 86% 29.99 in 8.0 mi East 8.1 mph - N/A   Overcast
11:15 AM 23.0 °F 13.9 °F 19.4 °F 86% 29.98 in 8.0 mi East 8.1 mph - N/A   Overcast
11:35 AM 23.0 °F 14.7 °F 19.4 °F 86% 29.96 in 7.0 mi East 6.9 mph - N/A   Overcast
12:15 PM 24.8 °F 17.9 °F 19.4 °F 80% 29.95 in 7.0 mi ENE 5.8 mph - N/A   Mostly Cloudy
12:35 PM 24.8 °F 19.1 °F 19.4 °F 80% 29.94 in 7.0 mi NE 4.6 mph - N/A   Scattered Clouds
12:55 PM 23.0 °F 17.0 °F 19.4 °F 86% 29.93 in 8.0 mi NE 4.6 mph - N/A   Clear
1:15 PM 23.0 °F 18.4 °F 19.4 °F 86% 29.93 in 8.0 mi North 3.5 mph - N/A   Scattered Clouds
1:35 PM 23.0 °F 15.8 °F 19.4 °F 86% 29.93 in 6.0 mi North 5.8 mph - N/A   Overcast
1:55 PM 23.0 °F 13.9 °F 19.4 °F 86% 29.93 in 6.0 mi North 8.1 mph - N/A   Overcast
2:15 PM 23.0 °F 15.8 °F 19.4 °F 86% 29.94 in 5.0 mi North 5.8 mph - N/A   Overcast
2:35 PM 23.0 °F 13.9 °F 19.4 °F 86% 29.94 in 5.0 mi North 8.1 mph - N/A   Overcast
2:55 PM 23.0 °F 13.9 °F 19.4 °F 86% 29.95 in 3.0 mi North 8.1 mph - N/A Rain Light Freezing Rain
3:15 PM 23.0 °F 14.7 °F 19.4 °F 86% 29.95 in 4.0 mi North 6.9 mph - N/A Rain Light Freezing Rain
3:35 PM 23.0 °F 17.0 °F 19.4 °F 86% 29.96 in 4.0 mi North 4.6 mph - N/A   Overcast
3:55 PM 23.0 °F 13.1 °F 19.4 °F 86% 29.96 in 5.0 mi NNW 9.2 mph - N/A Rain Light Freezing Rain
4:35 PM 21.2 °F 8.9 °F 19.4 °F 93% 29.97 in 5.0 mi NNW 12.7 mph - N/A   Light Freezing Rain
4:55 PM 21.2 °F 10.1 °F 17.6 °F 86% 29.97 in 5.0 mi NNW 10.4 mph - N/A Rain Light Freezing Rain
5:15 PM 21.2 °F 10.1 °F 17.6 °F 86% 29.98 in 5.0 mi NNW 10.4 mph - N/A Rain Light Freezing Rain
5:35 PM 21.2 °F 8.9 °F 17.6 °F 86% 29.98 in 5.0 mi NNW 12.7 mph - N/A Rain Light Freezing Rain
5:55 PM 21.2 °F 9.5 °F 17.6 °F 86% 29.98 in 7.0 mi NNW 11.5 mph - N/A Rain Light Freezing Rain
6:15 PM 19.4 °F 9.5 °F 17.6 °F 93% 29.98 in 7.0 mi NNW 8.1 mph 15.0 mph N/A Rain Light Freezing Rain
6:35 PM 19.4 °F 10.4 °F 15.8 °F 86% 29.98 in 6.0 mi North 6.9 mph - N/A Rain Light Freezing Rain
6:55 PM 19.4 °F 7.9 °F 15.8 °F 86% 29.98 in 7.0 mi NNW 10.4 mph - N/A   Overcast
7:15 PM 19.4 °F 9.5 °F 15.8 °F 86% 29.98 in 6.0 mi NNW 8.1 mph - N/A Snow Light Snow
7:35 PM 19.4 °F 9.5 °F 15.8 °F 86% 29.99 in 6.0 mi NNW 8.1 mph - N/A   Overcast
7:55 PM 19.4 °F 9.5 °F 15.8 °F 86% 29.99 in 7.0 mi NNW 8.1 mph - N/A   Overcast
8:15 PM 17.6 °F 4.3 °F 15.8 °F 93% 30.00 in 8.0 mi NW 12.7 mph - N/A   Overcast
8:35 PM 19.4 °F 6.0 °F 15.8 °F 86% 29.99 in 6.0 mi NNW 13.8 mph - N/A Snow Light Snow
8:55 PM 19.4 °F 6.6 °F 15.8 °F 86% 30.00 in 6.0 mi NNW 12.7 mph - N/A Rain Light Freezing Rain
9:15 PM 19.4 °F 6.6 °F 15.8 °F 86% 29.99 in 7.0 mi NNW 12.7 mph - N/A Rain Light Freezing Rain
9:35 PM 17.6 °F 3.7 °F 14.0 °F 86% 29.99 in 7.0 mi NNW 13.8 mph - N/A   Overcast
9:55 PM 17.6 °F 2.7 °F 14.0 °F 86% 30.00 in 9.0 mi NNW 16.1 mph - N/A   Overcast
10:15 PM 17.6 °F 3.7 °F 14.0 °F 86% 30.00 in 9.0 mi NNW 13.8 mph - N/A   Overcast
10:35 PM 17.6 °F 5.7 °F 14.0 °F 86% 30.00 in 9.0 mi NNW 10.4 mph 18.4 mph N/A Snow Light Snow
10:55 PM 17.6 °F 4.3 °F 14.0 °F 86% 30.01 in 10.0 mi NNW 12.7 mph 19.6 mph N/A Snow Light Snow
11:15 PM 15.8 °F 2.7 °F 14.0 °F 93% 30.01 in 10.0 mi NNW 11.5 mph 18.4 mph N/A   Overcast
11:35 PM 15.8 °F 0.9 °F 14.0 °F 93% 30.01 in 10.0 mi NNW 15.0 mph - N/A   Overcast
11:55 PM 15.8 °F 2.1 °F 12.2 °F 86% 30.01 in 8.0 mi NNW 12.7 mph - N/A Snow Light Snow